TimeWET,TemperatureF,Dew PointF,Humidity,Sea Level PressureIn,VisibilityMPH,Wind Direction,Wind SpeedMPH,Gust SpeedMPH,PrecipitationIn,Events,Conditions,WindDirDegrees,DateUTC
12:00 AM,50,46,82,30.00,6,ENE,2.3,,,,,60,2012-12-13 00:00:00
12:00 AM,48.2,44.6,87,29.98,-9999.0,Variable,2.3,-,N/A,,Clear,0,2012-12-13 00:00:00
1:00 AM,48.2,44.6,87,29.98,-9999.0,ENE,6.9,-,N/A,,Clear,70,2012-12-13 01:00:00
2:00 AM,48.2,39.2,71,29.98,-9999.0,East,8.1,-,N/A,,Clear,90,2012-12-13 02:00:00
3:00 AM,48,40,66,29.99,6,East,6.9,,,,Partly Cloudy,90,2012-12-13 03:00:00
3:00 AM,48.2,41.0,76,29.98,6.2,East,6.9,-,N/A,,Scattered Clouds,90,2012-12-13 03:00:00
5:00 AM,44.6,37.4,76,29.98,6.2,ENE,5.8,-,N/A,,Scattered Clouds,60,2012-12-13 05:00:00
6:00 AM,42,37,76,30.00,6,East,5.8,,,,Partly Cloudy,90,2012-12-13 06:00:00
6:00 AM,42.8,37.4,81,29.98,6.2,East,5.8,-,N/A,,Scattered Clouds,90,2012-12-13 06:00:00
7:00 AM,41.0,35.6,81,30.01,6.2,ENE,5.8,-,N/A,,Scattered Clouds,60,2012-12-13 07:00:00
8:00 AM,42.8,35.6,76,30.01,6.2,ENE,4.6,-,N/A,,Partly Cloudy,70,2012-12-13 08:00:00
9:00 AM,48,38,57,30.06,6,ENE,6.9,,,,Scattered Clouds,60,2012-12-13 09:00:00
9:00 AM,48.2,37.4,66,30.04,6.2,ENE,6.9,-,N/A,,Partly Cloudy,60,2012-12-13 09:00:00
10:00 AM,57.2,39.2,51,30.06,-9999.0,NE,4.6,-,N/A,,Clear,40,2012-12-13 10:00:00
11:00 AM,60.8,44.6,55,30.06,-9999.0,ENE,4.6,-,N/A,,Clear,60,2012-12-13 11:00:00
12:00 PM,64,45,39,30.06,6,ENE,1.2,,,,,70,2012-12-13 12:00:00
12:00 PM,64.4,44.6,49,30.04,-9999.0,Variable,1.2,-,N/A,,Clear,0,2012-12-13 12:00:00
1:00 PM,66.2,44.6,46,30.04,-9999.0,Variable,2.3,-,N/A,,Clear,0,2012-12-13 13:00:00
2:00 PM,68.0,42.8,40,30.01,-9999.0,Variable,2.3,-,N/A,,Clear,0,2012-12-13 14:00:00
3:00 PM,68,46,34,29.99,6,West,8.1,,,,,270,2012-12-13 15:00:00
3:00 PM,68.0,46.4,46,29.98,-9999.0,West,8.1,-,N/A,,Clear,270,2012-12-13 15:00:00
4:00 PM,66.2,46.4,49,30.01,-9999.0,West,11.5,-,N/A,,Clear,270,2012-12-13 16:00:00
7:00 PM,59.0,51.8,77,30.01,-9999.0,South,6.9,-,N/A,,Clear,180,2012-12-13 19:00:00
8:00 PM,57.2,51.8,82,30.04,-9999.0,SSE,6.9,-,N/A,,Clear,160,2012-12-13 20:00:00
9:00 PM,54,50,82,30.08,6,ESE,3.5,,,,,110,2012-12-13 21:00:00
9:00 PM,55.4,50.0,82,30.06,-9999.0,ESE,3.5,-,N/A,,Clear,110,2012-12-13 21:00:00
10:00 PM,53.6,50.0,88,30.09,-9999.0,Variable,2.3,-,N/A,,Clear,0,2012-12-13 22:00:00